Location: Caltech
(34.1382°N, 118.1253°W)
Time: 14:42:13
(UTC-07:00)

Tiros 1 despin weight - Visible Passes

Search period start: 22 July 2014 00:00
Search period end: 01 August 2014 00:00
Orbit: 602 x 652 km, 48.2° (Epoch: 22 July)

Date Brightness Start Highest point End Pass type
(mag) Time Alt. Az. Time Alt. Az. Time Alt. Az.
22 Jul ? 00:05:20 10° NNW 00:07:29 13° N 00:09:38 10° NNE visible
22 Jul ? 01:46:51 10° NNW 01:48:16 17° NNW 01:48:16 17° NNW visible
22 Jul ? 20:57:28 10° W 21:01:39 35° NNW 21:05:48 10° NE visible
22 Jul ? 22:41:54 10° NW 22:44:25 15° N 22:46:55 10° NNE visible
23 Jul ? 00:25:00 10° NNW 00:27:38 15° NNE 00:28:17 15° NNE visible
23 Jul ? 21:17:58 10° WNW 21:21:31 22° NNW 21:25:03 10° NNE visible
23 Jul ? 23:02:27 10° NNW 23:04:35 13° N 23:06:43 10° NNE visible
24 Jul ? 00:44:20 10° NNW 00:45:59 17° N 00:45:59 17° N visible
24 Jul ? 21:38:43 10° NW 21:41:33 16° NNW 21:44:21 10° NNE visible
24 Jul ? 23:22:22 10° NNW 23:24:46 14° N 23:26:42 11° NE visible
25 Jul ? 01:03:34 10° NW 01:03:54 12° NW 01:03:54 12° NW visible
25 Jul ? 21:59:26 10° NW 22:01:41 14° N 22:03:56 10° NNE visible
25 Jul ? 23:41:47 10° NNW 23:44:44 18° NNE 23:44:44 18° NNE visible
26 Jul ? 20:35:32 10° WNW 20:38:41 18° NNW 20:41:49 10° NNE visible
26 Jul ? 22:19:37 10° NNW 22:21:52 13° N 22:24:06 10° NE visible
27 Jul ? 00:01:03 10° NNW 00:02:50 19° NNW 00:02:50 19° NNW visible
27 Jul ? 20:56:19 10° NW 20:58:47 14° N 21:01:14 10° NNE visible
27 Jul ? 22:39:12 10° NNW 22:42:00 16° NNE 22:43:47 13° NE visible
28 Jul ? 00:20:19 10° NW 00:20:59 14° NW 00:20:59 14° NW visible
28 Jul ? 21:16:45 10° NNW 21:18:57 13° N 21:21:09 10° NNE visible
28 Jul ? 22:58:30 10° NNW 23:01:59 22° NNE 23:01:59 22° NNE visible
29 Jul ? 21:36:33 10° NNW 21:39:07 15° N 21:41:40 10° NE visible
29 Jul ? 23:17:45 10° NW 23:20:13 26° NNW 23:20:13 26° NNW visible
30 Jul ? 21:55:57 10° NNW 21:59:12 19° NNE 22:01:17 15° NE visible
30 Jul ? 23:37:07 10° NW 23:38:30 20° NW 23:38:30 20° NW visible
31 Jul ? 20:33:50 10° NNW 20:36:13 14° N 20:38:36 10° NE visible
31 Jul ? 22:15:12 10° NW 22:19:08 29° NNE 22:19:36 28° NE visible
31 Jul ? 23:56:42 10° WNW 23:56:50 11° WNW 23:56:50 11° WNW visible
